Location: Joplin
(37.0842°N, 94.5131°W)
Time: 21:33:36
(UTC-05:00)

DOVE 4 - Visible Passes

Search period start: 25 June 2019 00:00
Search period end: 05 July 2019 00:00
Orbit: 589 x 801 km, 97.7° (Epoch: 25 June)

Date Brightness Start Highest point End Pass type
(mag) Time Alt. Az. Time Alt. Az. Time Alt. Az.
25 Jun ? 03:48:22 10° NNE 03:53:03 47° E 03:55:40 23° SSE visible
25 Jun ? 05:27:12 10° NNW 05:30:13 17° WNW 05:33:07 10° WSW visible
26 Jun ? 02:54:04 10° ENE 02:55:33 11° E 02:57:01 10° ESE visible
26 Jun ? 04:28:54 10° N 04:33:42 62° WNW 04:36:41 21° SSW visible
27 Jun ? 03:32:21 10° NNE 03:36:36 31° E 03:38:59 20° SE visible
27 Jun ? 05:10:17 10° NNW 05:14:02 23° WNW 05:17:37 10° WSW visible
28 Jun ? 04:12:33 10° NNE 04:17:22 89° E 04:20:01 25° SSW visible
29 Jun ? 03:16:34 10° NE 03:20:06 21° E 03:22:18 15° SE visible
29 Jun ? 04:53:35 10° N 04:57:49 33° WNW 05:01:03 14° SW visible
30 Jun ? 03:56:19 10° NNE 04:00:59 59° E 04:03:19 26° S visible
01 Jul ? 03:01:14 10° ENE 03:03:32 14° E 03:05:36 11° ESE visible
01 Jul ? 04:37:01 10° N 04:41:32 48° WNW 04:44:21 20° SW visible
02 Jul ? 03:40:12 10° NNE 03:44:32 38° E 03:46:38 24° SSE visible
02 Jul ? 05:18:41 10° NNW 05:21:49 18° WNW 05:24:50 10° WSW visible
03 Jul ? 04:20:36 10° N 04:25:13 73° WNW 04:27:39 26° SSW visible
04 Jul ? 03:24:16 10° NE 03:28:02 25° E 03:29:55 19° SE visible
04 Jul ? 05:01:50 10° NNW 05:05:36 26° WNW 05:08:40 13° WSW visible
